Flag for Paraguay Weather past 2 weeks in Asuncion, Paraguay

Now
68 °F

Partly cloudy.


Feels Like: 68 °F
Forecast: N/A
Wind: 9 mph from South

Location: Asuncion / Aeropuerto

Current Time: Sep 3, 2015 at 7:57:11 PM

Latest Report: Sep 3, 2015 at 7:00 PM


Visibility: N/A

Pressure: 30.01 "Hg

Humidity: 69%

Dew point: 57 °F

Location of AsuncionLocation

Historic Weather in Asuncion — Graph

°F

Asuncion temperature yesterday

Maximum temperature yesterday: 81 °F (at 2:00 PM)
Minimum temperature yesterday: 63 °F (at 3:00 AM)
Average temperature yesterday: 68 °F

Past Weeks' High & Low Weather Summary

 TemperatureHumidityPressure
High97 °F (Aug 31, 2:00 PM)100% (Aug 21, 4:00 AM)30.15 "Hg (Aug 21, 4:00 AM)
Low52 °F (Aug 21, 4:00 AM)35% (Aug 27, 3:00 PM)29.65 "Hg (Aug 22, 3:00 PM)
Average72 °F67%29.94 "Hg
* Reported Aug 19 7:00 PM — Sep 3 7:00 PM, Asuncion, Weather by CustomWeather, © 2015

Note: Actual official high and low records may vary slightly from our data, if they occured in-between our weather recording intervals... More about our weather records

Advertising

Asuncion weather history for previous 24 hours

 ConditionsComfort  
Time TempWeatherWind HumidityBarometerVisibility
7:00 PM
Thu, Sep 3
68 °FPartly cloudy.9 mph69%30.01 "HgN/A
6:00 PM68 °FPartly cloudy.10 mph73%30.01 "HgN/A
5:00 PM70 °FPartly cloudy.10 mph69%29.98 "HgN/A
4:00 PM72 °FPartly sunny.9 mph69%29.98 "HgN/A
3:00 PM72 °FOvercast.10 mph73%29.95 "HgN/A
2:00 PM73 °FOvercast.15 mph69%29.98 "HgN/A
1:00 PM73 °FPartly sunny.14 mph69%29.98 "HgN/A
12:00 PM73 °FPartly sunny.14 mph69%30.01 "HgN/A
11:00 AM73 °FPartly sunny.14 mph74%30.01 "HgN/A
10:00 AM72 °FPartly sunny.14 mph73%30.04 "HgN/A
9:30 AM72 °FScattered clouds.12 mph73%30.01 "HgN/A
9:00 AM70 °FScattered clouds.8 mph78%30.01 "HgN/A
8:30 AM68 °FScattered clouds.10 mph78%30.01 "HgN/A
8:00 AM66 °FPartly sunny.13 mph83%30.01 "HgN/A
7:30 AM66 °FBroken clouds.16 mph83%29.98 "HgN/A
7:00 AM66 °FBroken clouds.13 mph83%29.98 "HgN/A
6:00 AM64 °FPartly sunny.9 mph88%29.98 "HgN/A
5:00 AM66 °FBroken clouds.10 mph88%29.95 "HgN/A
4:00 AM66 °FPassing clouds.9 mph88%29.95 "HgN/A
3:00 AM66 °FPassing clouds.6 mph88%29.95 "HgN/A
2:00 AM66 °FPassing clouds.7 mph88%29.95 "HgN/A
1:00 AM66 °FClear.7 mph88%29.95 "Hg10 mi
12:00 AM68 °FClear.9 mph83%29.95 "Hg10 mi
11:00 PM
Wed, Sep 2
68 °FClear.12 mph83%29.98 "Hg10 mi
10:00 PM70 °FClear.12 mph83%29.98 "Hg10 mi
9:00 PM70 °FClear.9 mph83%29.95 "Hg10 mi
8:00 PM72 °FClear.12 mph83%29.95 "Hg10 mi
7:00 PM72 °FClear.8 mph83%29.92 "Hg10 mi
Weather by CustomWeather, © 2015

See weather overviewHow to use our weather pages